[TLELIST] Archives

 

[TLELIST] Current TLEs

March 30th 2025 PDT

HST 1 20580U 90037B 25088.71981283 .00011643 00000-0 45726-3 0 9998 2 20580 28.4682 223.1560 0001600 301.0921 58.9516 15.24083077720548 ISS (ZARYA) 1 25544U 98067A 25089.20172942 .00018280 00000-0 32408-3 0 9990 2 25544 51.6366 338.2240 0003572 62.6445 297.4908 15.50299454502915 CXO 1 25867U 99040B 25090.10282638 .00000974 00000-0 00000-0 0 9996 2 25867 47.7629 133.6260 8543538 308.0279 0.3493 0.37811648 15644 ...Continue Reading

[TLELIST] Current TLEs

March 30th 2025 PDT

HST 1 20580U 90037B 25088.71981283 .00011643 00000-0 45726-3 0 9998 2 20580 28.4682 223.1560 0001600 301.0921 58.9516 15.24083077720548 ISS (ZARYA) 1 25544U 98067A 25089.20172942 .00018280 00000-0 32408-3 0 9990 2 25544 51.6366 338.2240 0003572 62.6445 297.4908 15.50299454502915 CXO 1 25867U 99040B 25090.10282638 .00000974 00000-0 00000-0 0 9996 2 25867 47.7629 133.6260 8543538 308.0279 0.3493 0.37811648 15644 ...Continue Reading

[TLELIST] Current TLEs

March 29th 2025 PDT

HST 1 20580U 90037B 25087.73757977 .00011733 00000-0 46118-3 0 9996 2 20580 28.4679 229.8010 0001606 288.4991 71.5428 15.24059510720399 ISS (ZARYA) 1 25544U 98067A 25088.17033919 .00028783 00000-0 50574-3 0 9998 2 25544 51.6368 343.3364 0003580 59.4106 300.7235 15.50261465502752 CXO 1 25867U 99040B 25090.10282638 .00000974 00000-0 00000-0 0 9996 2 25867 47.7629 133.6260 8543538 308.0279 0.3493 0.37811648 15644 ...Continue Reading

[TLELIST] Current TLEs

March 29th 2025 PDT

HST 1 20580U 90037B 25087.73757977 .00011733 00000-0 46118-3 0 9996 2 20580 28.4679 229.8010 0001606 288.4991 71.5428 15.24059510720399 ISS (ZARYA) 1 25544U 98067A 25088.17033919 .00028783 00000-0 50574-3 0 9998 2 25544 51.6368 343.3364 0003580 59.4106 300.7235 15.50261465502752 CXO 1 25867U 99040B 25090.10282638 .00000974 00000-0 00000-0 0 9996 2 25867 47.7629 133.6260 8543538 308.0279 0.3493 0.37811648 15644 ...Continue Reading

[TLELIST] Current TLEs

March 28th 2025 PDT

HST 1 20580U 90037B 25086.75533214 .00013840 00000-0 54577-3 0 9992 2 20580 28.4673 236.4468 0001530 277.2829 82.7591 15.24035327720245 ISS (ZARYA) 1 25544U 98067A 25087.13891722 .00026637 00000-0 46979-3 0 9997 2 25544 51.6369 348.4472 0003631 58.3052 301.8291 15.50197518502597 CXO 1 25867U 99040B 25087.45883413 .00001117 00000-0 00000+0 0 9997 2 25867 47.6572 133.8492 8543856 307.9121 0.4392 0.37806966 26790 ...Continue Reading

[TLELIST] Current TLEs

March 28th 2025 PDT

HST 1 20580U 90037B 25086.75533214 .00013840 00000-0 54577-3 0 9992 2 20580 28.4673 236.4468 0001530 277.2829 82.7591 15.24035327720245 ISS (ZARYA) 1 25544U 98067A 25087.13891722 .00026637 00000-0 46979-3 0 9997 2 25544 51.6369 348.4472 0003631 58.3052 301.8291 15.50197518502597 CXO 1 25867U 99040B 25087.45883413 .00001117 00000-0 00000+0 0 9997 2 25867 47.6572 133.8492 8543856 307.9121 0.4392 0.37806966 26790 ...Continue Reading

[TLELIST] Current TLEs

March 27th 2025 PDT

HST 1 20580U 90037B 25085.77306734 .00013456 00000-0 53087-3 0 9996 2 20580 28.4664 243.0911 0001525 258.7259 101.3164 15.24005857720099 ISS (ZARYA) 1 25544U 98067A 25086.17192136 .00035516 00000-0 62421-3 0 9999 2 25544 51.6371 353.2392 0003699 54.8873 305.2462 15.50144996502445 CXO 1 25867U 99040B 25087.45883413 .00001117 00000-0 00000+0 0 9997 2 25867 47.6572 133.8492 8543856 307.9121 0.4392 0.37806966 26790 ...Continue Reading

[TLELIST] Current TLEs

March 27th 2025 PDT

HST 1 20580U 90037B 25085.77306734 .00013456 00000-0 53087-3 0 9996 2 20580 28.4664 243.0911 0001525 258.7259 101.3164 15.24005857720099 ISS (ZARYA) 1 25544U 98067A 25086.17192136 .00035516 00000-0 62421-3 0 9999 2 25544 51.6371 353.2392 0003699 54.8873 305.2462 15.50144996502445 CXO 1 25867U 99040B 25087.45883413 .00001117 00000-0 00000+0 0 9997 2 25867 47.6572 133.8492 8543856 307.9121 0.4392 0.37806966 26790 ...Continue Reading

[TLELIST] Current TLEs

March 26th 2025 PDT

HST 1 20580U 90037B 25084.72529742 .00014745 00000-0 58290-3 0 9999 2 20580 28.4667 250.1794 0001491 238.6093 121.4355 15.23979298719939 ISS (ZARYA) 1 25544U 98067A 25085.14041700 .00034238 00000-0 60364-3 0 9999 2 25544 51.6371 358.3501 0003684 51.9083 308.2238 15.50074167502286 CXO 1 25867U 99040B 25087.45883413 .00001117 00000-0 00000+0 0 9997 2 25867 47.6572 133.8492 8543856 307.9121 0.4392 0.37806966 26790 ...Continue Reading

[TLELIST] Current TLEs

March 25th 2025 PDT

HST 1 20580U 90037B 25083.87396965 .00016103 00000-0 63770-3 0 9992 2 20580 28.4669 255.9381 0001511 227.3681 132.6786 15.23955997719805 ISS (ZARYA) 1 25544U 98067A 25084.07965278 .00033861 00000-0 59879-3 0 9995 2 25544 51.6396 3.6030 0003529 50.4782 146.5284 15.49994558502117 CXO 1 25867U 99040B 25082.17080422 .00001164 00000-0 00000-0 0 9993 2 25867 47.5274 134.1331 8548680 307.8430 0.4075 0.37803186 15614 ...Continue Reading
  • This mailing list is a public mailing list - anyone may join or leave, at any time.
  • This mailing list is announce-only.

International Space Station (ISS) / Hubble Space Telescope (HST) / Chandra X-Ray Observatory Orbital Data via EMAIL

Privacy Policy:

Private list